,,,PA_Meas_PMT16A,,PR_Meas_QMR101_102,,RH_Meas_QMH101,,SR_Meas_QMS101,,TA_Meas_QMH101,,GenWind,,GenWind,
date,time,status,PA,status,PR,status,RH,status,SR,status,TA,status,DirAvg,status,SpdAvg,
2011-03-30, 00:00:05,VALID,999.656,VALID,0,VALID,88.3129,VALID,0.112286,VALID,24.5971,VALID,125,VALID,0.623438,
2011-03-30, 00:01:05,VALID,999.666,VALID,0,VALID,87.9924,VALID,0.112286,VALID,24.5971,VALID,113,VALID,0.633984,
2011-03-30, 00:02:05,VALID,999.637,VALID,0,VALID,87.9085,VALID,0,VALID,24.6166,VALID,113,VALID,0.490625,
2011-03-30, 00:03:05,VALID,999.666,VALID,0,VALID,88.3205,VALID,0.112286,VALID,24.6361,VALID,113,VALID,0.510156,
2011-03-30, 00:04:05,VALID,999.664,VALID,0,VALID,88.6028,VALID,0.112286,VALID,24.6361,VALID,113,VALID,0.00585938,
2011-03-30, 00:05:05,VALID,999.652,VALID,0,VALID,88.8622,VALID,0.112286,VALID,24.6166,VALID,113,VALID,0,
2011-03-30, 00:06:05,VALID,999.672,VALID,0,VALID,89.0987,VALID,0,VALID,24.5971,VALID,113,VALID,0,
2011-03-30, 00:07:05,VALID,999.688,VALID,0,VALID,89.236,VALID,0,VALID,24.5775,VALID,113,VALID,0,
2011-03-30, 00:08:05,VALID,999.685,VALID,0,VALID,89.3428,VALID,0,VALID,24.5385,VALID,113,VALID,0,
2011-03-30, 00:09:05,VALID,999.707,VALID,0,VALID,89.4344,VALID,0,VALID,24.519,VALID,113,VALID,0,
2011-03-30, 00:10:05,VALID,999.749,VALID,0,VALID,89.4573,VALID,0.112286,VALID,24.4995,VALID,113,VALID,0,
2011-03-30, 00:11:05,VALID,999.735,VALID,0,VALID,89.5412,VALID,0,VALID,24.48,VALID,113,VALID,0,
2011-03-30, 00:12:05,VALID,999.78,VALID,0,VALID,89.6328,VALID,0,VALID,24.48,VALID,113,VALID,0,
2011-03-30, 00:13:05,VALID,999.754,VALID,0,VALID,89.7091,VALID,0.112286,VALID,24.48,VALID,113,VALID,0,
2011-03-30, 00:14:05,VALID,999.764,VALID,0,VALID,89.7549,VALID,0,VALID,24.4623,VALID,113,VALID,0,
2011-03-30, 00:15:05,VALID,999.76,VALID,0,VALID,89.8235,VALID,0,VALID,24.4623,VALID,113,VALID,0,
2011-03-30, 00:16:05,VALID,999.748,VALID,0,VALID,89.8998,VALID,0,VALID,24.4623,VALID,113,VALID,0,
2011-03-30, 00:17:05,VALID,999.734,VALID,0,VALID,89.9074,VALID,0,VALID,24.4623,VALID,113,VALID,0,
2011-03-30, 00:18:05,VALID,999.72,VALID,0,VALID,89.8998,VALID,0,VALID,24.4428,VALID,113,VALID,0,
2011-03-30, 00:19:05,VALID,999.695,VALID,0,VALID,89.8769,VALID,0,VALID,24.4428,VALID,113,VALID,0,
2011-03-30, 00:20:05,VALID,999.686,VALID,0,VALID,89.8769,VALID,0,VALID,24.4233,VALID,113,VALID,0,
2011-03-30, 00:21:05,VALID,999.678,VALID,0,VALID,89.8998,VALID,0,VALID,24.4233,VALID,113,VALID,0,
2011-03-30, 00:22:05,VALID,999.66,VALID,0,VALID,89.9151,VALID,0,VALID,24.4233,VALID,113,VALID,0,
2011-03-30, 00:23:05,VALID,999.605,VALID,0,VALID,89.9456,VALID,0,VALID,24.4428,VALID,113,VALID,0,
2011-03-30, 00:24:05,VALID,999.618,VALID,0,VALID,89.7243,VALID,0,VALID,24.4037,VALID,113,VALID,0,
2011-03-30, 00:25:05,VALID,999.632,VALID,0,VALID,89.442,VALID,0,VALID,24.3842,VALID,113,VALID,0,
2011-03-30, 00:26:05,VALID,999.619,VALID,0,VALID,89.175,VALID,0,VALID,24.3842,VALID,113,VALID,0,
2011-03-30, 00:27:05,VALID,999.566,VALID,0,VALID,89.03,VALID,0,VALID,24.3842,VALID,113,VALID,0.623438,
2011-03-30, 00:28:05,VALID,999.564,VALID,0,VALID,88.8774,VALID,0,VALID,24.4037,VALID,113,VALID,0.848437,
2011-03-30, 00:29:05,VALID,999.536,VALID,0,VALID,88.7096,VALID,0,VALID,24.4037,VALID,112,VALID,0.834766,
2011-03-30, 00:30:05,VALID,999.517,VALID,0,VALID,88.6486,VALID,0,VALID,24.4233,VALID,112,VALID,0.602734,
2011-03-30, 00:31:05,VALID,999.498,VALID,0,VALID,88.6409,VALID,0,VALID,24.4623,VALID,112,VALID,0.576172,
2011-03-30, 00:32:05,VALID,999.469,VALID,0,VALID,88.6714,VALID,0,VALID,24.4623,VALID,112,VALID,0.505859,
2011-03-30, 00:33:05,VALID,999.447,VALID,0,VALID,88.7096,VALID,0,VALID,24.4623,VALID,112,VALID,0.434375,
2011-03-30, 00:34:05,VALID,999.411,VALID,0,VALID,88.7401,VALID,0,VALID,24.4428,VALID,112,VALID,0.416797,
2011-03-30, 00:35:05,VALID,999.443,VALID,0,VALID,88.8317,VALID,0,VALID,24.4233,VALID,112,VALID,0.0289063,
2011-03-30, 00:36:05,VALID,999.407,VALID,0,VALID,88.9385,VALID,0,VALID,24.4233,VALID,112,VALID,0.319922,
2011-03-30, 00:37:05,VALID,999.422,VALID,0,VALID,89.0682,VALID,0,VALID,24.4233,VALID,112,VALID,0.373437,
2011-03-30, 00:38:05,VALID,999.43,VALID,0,VALID,89.1597,VALID,0,VALID,24.4037,VALID,112,VALID,0.514453,
2011-03-30, 00:39:05,VALID,999.392,VALID,0,VALID,89.2208,VALID,0,VALID,24.4037,VALID,73,VALID,0.757422,
2011-03-30, 00:40:05,VALID,999.403,VALID,0,VALID,89.4115,VALID,0,VALID,24.4037,VALID,60,VALID,0.864844,
2011-03-30, 00:41:05,VALID,999.382,VALID,0,VALID,89.7549,VALID,0,VALID,24.4056,VALID,60,VALID,0.762109,
2011-03-30, 00:42:05,VALID,999.357,VALID,0,VALID,89.9914,VALID,0,VALID,24.3861,VALID,60,VALID,0.763672,
2011-03-30, 00:43:05,VALID,999.326,VALID,0,VALID,90.1287,VALID,0,VALID,24.3257,VALID,60,VALID,0.540234,
2011-03-30, 00:44:05,VALID,999.327,VALID,0,VALID,90.2508,VALID,0,VALID,24.2866,VALID,60,VALID,0.426953,
2011-03-30, 00:45:05,VALID,999.304,VALID,0,VALID,90.3423,VALID,0,VALID,24.2671,VALID,60,VALID,0.292188,
2011-03-30, 00:46:05,VALID,999.286,VALID,0,VALID,90.3957,VALID,0,VALID,24.2476,VALID,60,VALID,0.394922,
2011-03-30, 00:47:05,VALID,999.275,VALID,0,VALID,90.4644,VALID,0,VALID,24.2299,VALID,60,VALID,0.321875,
2011-03-30, 00:48:05,VALID,999.24,VALID,0,VALID,90.5254,VALID,0,VALID,24.2299,VALID,60,VALID,0.350781,
2011-03-30, 00:49:05,VALID,999.206,VALID,0,VALID,90.5941,VALID,0,VALID,24.1891,VALID,60,VALID,0.426953,
2011-03-30, 00:50:05,VALID,999.18,VALID,0,VALID,90.6704,VALID,0,VALID,24.1891,VALID,60,VALID,0.194922,
2011-03-30, 00:51:05,VALID,999.161,VALID,0,VALID,90.7162,VALID,0,VALID,24.15,VALID,60,VALID,0,
2011-03-30, 00:52:05,VALID,999.198,VALID,0,VALID,90.762,VALID,0,VALID,24.15,VALID,60,VALID,0,
2011-03-30, 00:53:05,VALID,999.129,VALID,0,VALID,90.8306,VALID,0,VALID,24.15,VALID,60,VALID,0,
2011-03-30, 00:54:05,VALID,999.167,VALID,0,VALID,90.8611,VALID,0,VALID,24.1519,VALID,60,VALID,0,
2011-03-30, 00:55:05,VALID,999.159,VALID,0,VALID,90.9298,VALID,0,VALID,24.1519,VALID,60,VALID,0,
2011-03-30, 00:56:05,VALID,999.167,VALID,0,VALID,90.9527,VALID,0,VALID,24.1519,VALID,60,VALID,0,
2011-03-30, 00:57:05,VALID,999.169,VALID,0,VALID,90.9603,VALID,0,VALID,24.1714,VALID,60,VALID,0,
2011-03-30, 00:58:05,VALID,999.157,VALID,0,VALID,90.9909,VALID,0,VALID,24.1696,VALID,60,VALID,0,
2011-03-30, 00:59:05,VALID,999.175,VALID,0,VALID,91.029,VALID,0,VALID,24.1696,VALID,60,VALID,0,
2011-03-30, 01:00:05,VALID,999.196,VALID,0,VALID,91.0519,VALID,0,VALID,24.1696,VALID,60,VALID,0,
2011-03-30, 01:01:05,VALID,999.166,VALID,0,VALID,91.0824,VALID,0,VALID,24.1891,VALID,60,VALID,0,
2011-03-30, 01:02:05,VALID,999.154,VALID,0,VALID,91.1053,VALID,0,VALID,24.1891,VALID,60,VALID,0,
2011-03-30, 01:03:05,VALID,999.133,VALID,0,VALID,91.1129,VALID,0,VALID,24.2086,VALID,60,VALID,0,
2011-03-30, 01:04:05,VALID,999.131,VALID,0,VALID,91.1511,VALID,0,VALID,24.2104,VALID,60,VALID,0,
2011-03-30, 01:05:05,VALID,999.094,VALID,0,VALID,91.2045,VALID,0,VALID,24.2086,VALID,60,VALID,0,
2011-03-30, 01:06:05,VALID,999.097,VALID,0,VALID,91.235,VALID,0,VALID,24.1891,VALID,60,VALID,0,
2011-03-30, 01:07:05,VALID,999.058,VALID,0,VALID,91.2731,VALID,0,VALID,24.1891,VALID,60,VALID,0,
2011-03-30, 01:08:05,VALID,999.042,VALID,0,VALID,91.3266,VALID,0,VALID,24.1891,VALID,60,VALID,0,
2011-03-30, 01:09:05,VALID,999.035,VALID,0,VALID,91.3647,VALID,0,VALID,24.1677,VALID,60,VALID,0,
2011-03-30, 01:10:05,VALID,999.038,VALID,0,VALID,91.4028,VALID,0,VALID,24.1714,VALID,60,VALID,0,
2011-03-30, 01:11:05,VALID,999.026,VALID,0,VALID,91.38,VALID,0,VALID,24.15,VALID,60,VALID,0,
2011-03-30, 01:12:05,VALID,999.025,VALID,0,VALID,91.38,VALID,0,VALID,24.15,VALID,60,VALID,0,
2011-03-30, 01:13:05,VALID,999.014,VALID,0,VALID,91.4334,VALID,0,VALID,24.1305,VALID,60,VALID,0,
2011-03-30, 01:14:05,VALID,998.989,VALID,0,VALID,91.4944,VALID,0,VALID,24.15,VALID,60,VALID,0,
2011-03-30, 01:15:05,VALID,998.949,VALID,0,VALID,91.5478,VALID,0,VALID,24.1305,VALID,60,VALID,0,
2011-03-30, 01:16:05,VALID,998.943,VALID,0,VALID,91.5631,VALID,0,VALID,24.15,VALID,60,VALID,0,
2011-03-30, 01:17:05,VALID,998.886,VALID,0,VALID,91.5936,VALID,0,VALID,24.1714,VALID,60,VALID,0,
2011-03-30, 01:18:05,VALID,998.905,VALID,0,VALID,91.6012,VALID,0,VALID,24.15,VALID,60,VALID,0,
2011-03-30, 01:19:05,VALID,998.902,VALID,0,VALID,91.5631,VALID,0,VALID,24.1696,VALID,60,VALID,0,
2011-03-30, 01:20:05,VALID,998.89,VALID,0,VALID,91.5249,VALID,0,VALID,24.1519,VALID,60,VALID,0,
2011-03-30, 01:21:05,VALID,998.879,VALID,0,VALID,91.4486,VALID,0,VALID,24.1305,VALID,60,VALID,0,
2011-03-30, 01:22:05,VALID,998.891,VALID,0,VALID,91.4639,VALID,0,VALID,24.1324,VALID,60,VALID,0,
2011-03-30, 01:23:05,VALID,998.939,VALID,0,VALID,91.441,VALID,0,VALID,24.1324,VALID,60,VALID,0,
2011-03-30, 01:24:05,VALID,998.916,VALID,0,VALID,91.4715,VALID,0,VALID,24.111,VALID,60,VALID,0,
2011-03-30, 01:25:05,VALID,998.946,VALID,0,VALID,91.502,VALID,0,VALID,24.111,VALID,60,VALID,0,
2011-03-30, 01:26:04,VALID,998.932,VALID,0,VALID,91.5097,VALID,0,VALID,24.1519,VALID,60,VALID,0,
2011-03-30, 01:27:04,VALID,998.899,VALID,0,VALID,91.5326,VALID,0,VALID,24.1324,VALID,60,VALID,0,
2011-03-30, 01:28:04,VALID,998.86,VALID,0,VALID,91.5326,VALID,0,VALID,24.0915,VALID,60,VALID,0,
2011-03-30, 01:29:04,VALID,998.831,VALID,0,VALID,91.5478,VALID,0,VALID,24.1324,VALID,60,VALID,0,
2011-03-30, 01:30:04,VALID,998.821,VALID,0,VALID,91.5631,VALID,0,VALID,24.1324,VALID,60,VALID,0,
2011-03-30, 01:31:04,VALID,998.796,VALID,0,VALID,91.5554,VALID,0,VALID,24.111,VALID,60,VALID,0,
2011-03-30, 01:32:04,VALID,998.756,VALID,0,VALID,91.5707,VALID,0,VALID,24.1519,VALID,60,VALID,0.613672,
2011-03-30, 01:33:04,VALID,998.787,VALID,0,VALID,91.5402,VALID,0,VALID,24.15,VALID,61,VALID,0.0785156,
2011-03-30, 01:34:04,VALID,998.758,VALID,0,VALID,91.5478,VALID,0,VALID,24.1909,VALID,76,VALID,0.552734,
2011-03-30, 01:35:04,VALID,998.697,VALID,0,VALID,91.5173,VALID,0,VALID,24.1891,VALID,101,VALID,0.744922,
2011-03-30, 01:36:04,VALID,998.687,VALID,0,VALID,91.4791,VALID,0,VALID,24.2299,VALID,101,VALID,0,
2011-03-30, 01:37:04,VALID,998.713,VALID,0,VALID,91.3952,VALID,0,VALID,24.2281,VALID,101,VALID,0,
2011-03-30, 01:38:04,VALID,998.739,VALID,0,VALID,91.3418,VALID,0,VALID,24.2281,VALID,101,VALID,0,
2011-03-30, 01:39:04,VALID,998.738,VALID,0,VALID,91.2808,VALID,0,VALID,24.2281,VALID,101,VALID,0,
2011-03-30, 01:40:04,VALID,998.748,VALID,0,VALID,91.2426,VALID,0,VALID,24.2281,VALID,101,VALID,0,
2011-03-30, 01:41:04,VALID,998.741,VALID,0,VALID,91.1968,VALID,0,VALID,24.2476,VALID,101,VALID,0,
2011-03-30, 01:42:04,VALID,998.752,VALID,0,VALID,91.1968,VALID,0,VALID,24.2476,VALID,101,VALID,0,
2011-03-30, 01:43:04,VALID,998.781,VALID,0,VALID,91.2045,VALID,0,VALID,24.2671,VALID,101,VALID,0,
2011-03-30, 01:44:04,VALID,998.754,VALID,0,VALID,91.1663,VALID,0,VALID,24.2671,VALID,101,VALID,0,
2011-03-30, 01:45:04,VALID,998.757,VALID,0,VALID,91.1129,VALID,0,VALID,24.2671,VALID,101,VALID,0,
2011-03-30, 01:46:04,VALID,998.744,VALID,0,VALID,91.0595,VALID,0,VALID,24.2671,VALID,101,VALID,0,
2011-03-30, 01:47:04,VALID,998.727,VALID,0,VALID,91.0137,VALID,0,VALID,24.2866,VALID,101,VALID,0,
2011-03-30, 01:48:04,VALID,998.753,VALID,0,VALID,90.9756,VALID,0,VALID,24.2866,VALID,101,VALID,0,
2011-03-30, 01:49:04,VALID,998.738,VALID,0,VALID,90.884,VALID,0,VALID,24.2866,VALID,101,VALID,0,
2011-03-30, 01:50:04,VALID,998.75,VALID,0,VALID,90.8535,VALID,0,VALID,24.2671,VALID,101,VALID,0,
2011-03-30, 01:51:04,VALID,998.742,VALID,0,VALID,90.8306,VALID,0,VALID,24.2458,VALID,101,VALID,0,
2011-03-30, 01:52:04,VALID,998.721,VALID,0,VALID,90.7925,VALID,0,VALID,24.2671,VALID,101,VALID,0,
2011-03-30, 01:53:04,VALID,998.715,VALID,0,VALID,90.7467,VALID,0,VALID,24.2476,VALID,101,VALID,0,
2011-03-30, 01:54:04,VALID,998.744,VALID,0,VALID,90.7467,VALID,0,VALID,24.2671,VALID,101,VALID,0,
2011-03-30, 01:55:04,VALID,998.691,VALID,0,VALID,90.7238,VALID,0,VALID,24.2476,VALID,101,VALID,0,
2011-03-30, 01:56:04,VALID,998.695,VALID,0,VALID,90.7085,VALID,0,VALID,24.2671,VALID,183,VALID,0.0617188,
2011-03-30, 01:57:04,VALID,998.705,VALID,0,VALID,90.5712,VALID,0,VALID,24.3062,VALID,192,VALID,1.29727,
2011-03-30, 01:58:04,VALID,998.652,VALID,0,VALID,90.3118,VALID,0,VALID,24.3257,VALID,206,VALID,0.546875,
2011-03-30, 01:59:04,VALID,998.642,VALID,0,VALID,90.1287,VALID,0,VALID,24.3647,VALID,206,VALID,0.233594,
2011-03-30, 02:00:04,VALID,998.587,VALID,0,VALID,89.9609,VALID,0,VALID,24.3647,VALID,206,VALID,0.340625,
2011-03-30, 02:01:04,VALID,998.563,VALID,0,VALID,89.9227,VALID,0,VALID,24.3842,VALID,206,VALID,0.133203,
2011-03-30, 02:02:04,VALID,998.578,VALID,0,VALID,89.8922,VALID,0,VALID,24.4233,VALID,214,VALID,0.000390625,
2011-03-30, 02:03:04,VALID,998.539,VALID,0,VALID,89.9532,VALID,0,VALID,24.4428,VALID,237,VALID,0.607813,
2011-03-30, 02:04:04,VALID,998.499,VALID,0,VALID,89.9609,VALID,0,VALID,24.4428,VALID,237,VALID,0.197266,
2011-03-30, 02:05:04,VALID,998.491,VALID,0,VALID,89.9303,VALID,0,VALID,24.4428,VALID,237,VALID,0,
2011-03-30, 02:06:04,VALID,998.487,VALID,0,VALID,89.8006,VALID,0,VALID,24.4037,VALID,178,VALID,0.865625,
2011-03-30, 02:07:04,VALID,998.477,VALID,0,VALID,89.7854,VALID,0,VALID,24.3452,VALID,48,VALID,0.6625,
2011-03-30, 02:08:04,VALID,998.49,VALID,0,VALID,89.8464,VALID,0,VALID,24.3452,VALID,48,VALID,0,
2011-03-30, 02:09:04,VALID,998.515,VALID,0,VALID,89.8311,VALID,0,VALID,24.3062,VALID,48,VALID,0,
2011-03-30, 02:10:04,VALID,998.499,VALID,0,VALID,89.8464,VALID,0,VALID,24.3062,VALID,48,VALID,0,
2011-03-30, 02:11:04,VALID,998.517,VALID,0,VALID,89.8846,VALID,0,VALID,24.3062,VALID,48,VALID,0,
2011-03-30, 02:12:04,VALID,998.52,VALID,0,VALID,89.9074,VALID,0,VALID,24.2866,VALID,100,VALID,0,
2011-03-30, 02:13:04,VALID,998.537,VALID,0,VALID,89.9303,VALID,0,VALID,24.2476,VALID,111,VALID,0,
2011-03-30, 02:14:04,VALID,998.589,VALID,0,VALID,90.06,VALID,0,VALID,24.2281,VALID,132,VALID,0,
2011-03-30, 02:15:04,VALID,998.593,VALID,0,VALID,90.1668,VALID,0,VALID,24.2495,VALID,132,VALID,0,
2011-03-30, 02:16:04,VALID,998.625,VALID,0,VALID,90.3042,VALID,0,VALID,24.2281,VALID,132,VALID,0,
2011-03-30, 02:17:04,VALID,998.658,VALID,0,VALID,90.3881,VALID,0,VALID,24.2067,VALID,163,VALID,0.0105469,
2011-03-30, 02:18:04,VALID,998.654,VALID,0,VALID,90.4568,VALID,0,VALID,24.2671,VALID,186,VALID,0.503516,
2011-03-30, 02:19:04,VALID,998.635,VALID,0,VALID,90.5178,VALID,0,VALID,24.2866,VALID,186,VALID,0.480078,
2011-03-30, 02:20:04,VALID,998.639,VALID,0,VALID,90.5178,VALID,0,VALID,24.3062,VALID,188,VALID,0.725391,
2011-03-30, 02:21:04,VALID,998.599,VALID,0,VALID,90.5331,VALID,0,VALID,24.3452,VALID,202,VALID,0.753125,
2011-03-30, 02:22:04,VALID,998.618,VALID,0,VALID,90.5331,VALID,0,VALID,24.3842,VALID,202,VALID,0.166797,
2011-03-30, 02:23:04,VALID,998.589,VALID,0,VALID,90.4339,VALID,0,VALID,24.3842,VALID,202,VALID,0,
2011-03-30, 02:24:04,VALID,998.589,VALID,0,VALID,90.3805,VALID,0,VALID,24.3647,VALID,202,VALID,0,
2011-03-30, 02:25:04,VALID,998.537,VALID,0,VALID,90.3271,VALID,0,VALID,24.3842,VALID,202,VALID,0,
2011-03-30, 02:26:04,VALID,998.541,VALID,0,VALID,90.1974,VALID,0,VALID,24.3842,VALID,174,VALID,0.346484,
2011-03-30, 02:27:04,VALID,998.565,VALID,0,VALID,90.0677,VALID,0,VALID,24.3842,VALID,174,VALID,0.05,
2011-03-30, 02:28:04,VALID,998.549,VALID,0,VALID,90.1134,VALID,0,VALID,24.4037,VALID,183,VALID,0.874609,
2011-03-30, 02:29:04,VALID,998.54,VALID,0,VALID,90.1287,VALID,0,VALID,24.4428,VALID,183,VALID,0.312109,
2011-03-30, 02:30:04,VALID,998.524,VALID,0,VALID,90.0219,VALID,0,VALID,24.4233,VALID,183,VALID,0.352734,
2011-03-30, 02:31:04,VALID,998.515,VALID,0,VALID,90.06,VALID,0,VALID,24.4233,VALID,241,VALID,0.424219,
2011-03-30, 02:32:04,VALID,998.512,VALID,0,VALID,90.0753,VALID,0,VALID,24.4428,VALID,241,VALID,0.352734,
2011-03-30, 02:33:04,VALID,998.511,VALID,0,VALID,90.1134,VALID,0,VALID,24.4623,VALID,241,VALID,0,
2011-03-30, 02:34:04,VALID,998.478,VALID,0,VALID,90.0829,VALID,0,VALID,24.4409,VALID,241,VALID,0,
2011-03-30, 02:35:04,VALID,998.453,VALID,0,VALID,90.0524,VALID,0,VALID,24.4428,VALID,241,VALID,0,
2011-03-30, 02:36:04,VALID,998.436,VALID,0,VALID,90.0677,VALID,0,VALID,24.4623,VALID,194,VALID,0.00742187,
2011-03-30, 02:37:04,VALID,998.424,VALID,0,VALID,90.1821,VALID,0,VALID,24.5032,VALID,198,VALID,0.625781,
2011-03-30, 02:38:04,VALID,998.425,VALID,0,VALID,90.1745,VALID,0,VALID,24.5209,VALID,202,VALID,0.665234,
2011-03-30, 02:39:04,VALID,998.415,VALID,0,VALID,90.1363,VALID,0,VALID,24.5209,VALID,223,VALID,0.930078,
2011-03-30, 02:40:04,VALID,998.435,VALID,0,VALID,90.0906,VALID,0,VALID,24.5404,VALID,211,VALID,0.805078,
2011-03-30, 02:41:04,VALID,998.435,VALID,0,VALID,90.0448,VALID,0,VALID,24.5209,VALID,213,VALID,0.757813,
2011-03-30, 02:42:04,VALID,998.438,VALID,0,VALID,90.0448,VALID,0,VALID,24.5404,VALID,195,VALID,1.66172,
2011-03-30, 02:43:04,VALID,998.436,VALID,0,VALID,89.9456,VALID,0,VALID,24.5794,VALID,191,VALID,1.65,
2011-03-30, 02:44:04,VALID,998.475,VALID,0,VALID,89.9151,VALID,0,VALID,24.5989,VALID,192,VALID,1.09961,
2011-03-30, 02:45:04,VALID,998.448,VALID,0,VALID,89.8846,VALID,0,VALID,24.6184,VALID,189,VALID,1.10938,
2011-03-30, 02:46:04,VALID,998.427,VALID,0,VALID,89.8235,VALID,0,VALID,24.5971,VALID,186,VALID,0.79375,
2011-03-30, 02:47:04,VALID,998.406,VALID,0,VALID,89.7701,VALID,0,VALID,24.6184,VALID,150,VALID,1.27344,
2011-03-30, 02:48:04,VALID,998.418,VALID,0,VALID,89.7701,VALID,0,VALID,24.5775,VALID,150,VALID,1.33477,
2011-03-30, 02:49:04,VALID,998.404,VALID,0,VALID,89.8388,VALID,0,VALID,24.5794,VALID,146,VALID,1.12422,
2011-03-30, 02:50:04,VALID,998.424,VALID,0,VALID,89.938,VALID,0,VALID,24.5404,VALID,151,VALID,1.27813,
2011-03-30, 02:51:04,VALID,998.4,VALID,0,VALID,89.999,VALID,0,VALID,24.5209,VALID,149,VALID,1.15391,
2011-03-30, 02:52:04,VALID,998.417,VALID,0,VALID,90.0906,VALID,0,VALID,24.4818,VALID,146,VALID,0.774219,
2011-03-30, 02:53:04,VALID,998.418,VALID,0,VALID,90.1821,VALID,0,VALID,24.4604,VALID,172,VALID,0.666016,
2011-03-30, 02:54:04,VALID,998.453,VALID,0,VALID,90.2431,VALID,0,VALID,24.4623,VALID,182,VALID,0.817578,
2011-03-30, 02:55:04,VALID,998.444,VALID,0,VALID,90.2737,VALID,0,VALID,24.4428,VALID,185,VALID,0.753906,
2011-03-30, 02:56:04,VALID,998.463,VALID,0,VALID,90.1821,VALID,0,VALID,24.4623,VALID,197,VALID,0.816797,
2011-03-30, 02:57:04,VALID,998.437,VALID,0,VALID,90.0677,VALID,0,VALID,24.5032,VALID,198,VALID,0.832031,
2011-03-30, 02:58:04,VALID,998.403,VALID,0,VALID,89.9074,VALID,0,VALID,24.5013,VALID,198,VALID,0.934375,
2011-03-30, 02:59:04,VALID,998.408,VALID,0,VALID,89.6023,VALID,0,VALID,24.4995,VALID,189,VALID,0.697656,
2011-03-30, 03:00:04,VALID,998.385,VALID,0,VALID,89.3886,VALID,0,VALID,24.5209,VALID,165,VALID,0.856641,
2011-03-30, 03:01:04,VALID,998.422,VALID,0,VALID,89.2666,VALID,0,VALID,24.5013,VALID,165,VALID,0.767187,
2011-03-30, 03:02:04,VALID,998.438,VALID,0,VALID,89.2208,VALID,0,VALID,24.5209,VALID,165,VALID,0.412891,
2011-03-30, 03:03:04,VALID,998.448,VALID,0,VALID,89.175,VALID,0,VALID,24.5013,VALID,165,VALID,0.269531,
2011-03-30, 03:04:04,VALID,998.482,VALID,0,VALID,89.1826,VALID,0,VALID,24.5013,VALID,165,VALID,0,
2011-03-30, 03:05:04,VALID,998.492,VALID,0,VALID,89.3886,VALID,0,VALID,24.5209,VALID,257,VALID,0.0121094,
2011-03-30, 03:06:04,VALID,998.469,VALID,0,VALID,89.4039,VALID,0,VALID,24.5013,VALID,267,VALID,0.5375,
2011-03-30, 03:07:04,VALID,998.473,VALID,0,VALID,89.1368,VALID,0,VALID,24.48,VALID,267,VALID,0,
2011-03-30, 03:08:04,VALID,998.449,VALID,0,VALID,89.1597,VALID,0,VALID,24.5209,VALID,267,VALID,0,
2011-03-30, 03:09:04,VALID,998.467,VALID,0,VALID,89.2666,VALID,0,VALID,24.5209,VALID,267,VALID,0,
2011-03-30, 03:10:04,VALID,998.46,VALID,0,VALID,89.3428,VALID,0,VALID,24.5013,VALID,267,VALID,0,
2011-03-30, 03:11:04,VALID,998.478,VALID,0,VALID,89.4649,VALID,0,VALID,24.5013,VALID,267,VALID,0,
2011-03-30, 03:12:04,VALID,998.497,VALID,0,VALID,89.587,VALID,0,VALID,24.4818,VALID,267,VALID,0,
2011-03-30, 03:13:04,VALID,998.536,VALID,0,VALID,89.7167,VALID,0,VALID,24.4623,VALID,267,VALID,0,
2011-03-30, 03:14:04,VALID,998.533,VALID,0,VALID,89.8083,VALID,0,VALID,24.4233,VALID,267,VALID,0,
2011-03-30, 03:15:04,VALID,998.522,VALID,0,VALID,89.8464,VALID,0,VALID,24.4037,VALID,267,VALID,0,
2011-03-30, 03:16:04,VALID,998.498,VALID,0,VALID,89.8464,VALID,0,VALID,24.3842,VALID,217,VALID,0.50625,
2011-03-30, 03:17:04,VALID,998.528,VALID,0,VALID,89.6633,VALID,0,VALID,24.3842,VALID,213,VALID,0.220703,
2011-03-30, 03:18:04,VALID,998.495,VALID,0,VALID,89.6099,VALID,0,VALID,24.3842,VALID,213,VALID,0,
2011-03-30, 03:19:04,VALID,998.49,VALID,0,VALID,89.6023,VALID,0,VALID,24.3842,VALID,213,VALID,0,
2011-03-30, 03:20:04,VALID,998.485,VALID,0,VALID,89.6557,VALID,0,VALID,24.3647,VALID,213,VALID,0.00429688,
2011-03-30, 03:21:04,VALID,998.446,VALID,0,VALID,89.6862,VALID,0,VALID,24.3452,VALID,213,VALID,0,
2011-03-30, 03:22:04,VALID,998.427,VALID,0,VALID,89.732,VALID,0,VALID,24.3452,VALID,213,VALID,0.238281,
2011-03-30, 03:23:04,VALID,998.458,VALID,0,VALID,89.6709,VALID,0,VALID,24.3257,VALID,213,VALID,0.0191406,
2011-03-30, 03:24:04,VALID,998.449,VALID,0,VALID,89.6023,VALID,0,VALID,24.3257,VALID,213,VALID,0.393359,
2011-03-30, 03:25:04,VALID,998.48,VALID,0,VALID,89.5412,VALID,0,VALID,24.3452,VALID,213,VALID,0,
2011-03-30, 03:26:04,VALID,998.461,VALID,0,VALID,89.4726,VALID,0,VALID,24.3238,VALID,213,VALID,0,
2011-03-30, 03:27:04,VALID,998.444,VALID,0,VALID,89.4191,VALID,0,VALID,24.3257,VALID,213,VALID,0,
2011-03-30, 03:28:04,VALID,998.439,VALID,0,VALID,89.6251,VALID,0,VALID,24.3433,VALID,77,VALID,0.573047,
2011-03-30, 03:29:04,VALID,998.447,VALID,0,VALID,89.7854,VALID,0,VALID,24.3647,VALID,83,VALID,0.778125,
2011-03-30, 03:30:04,VALID,998.43,VALID,0,VALID,90.0371,VALID,0,VALID,24.3647,VALID,94,VALID,0.926172,
2011-03-30, 03:31:04,VALID,998.438,VALID,0,VALID,90.3194,VALID,0,VALID,24.3452,VALID,96,VALID,0.756641,
2011-03-30, 03:32:04,VALID,998.443,VALID,0,VALID,90.556,VALID,0,VALID,24.3257,VALID,96,VALID,0.853906,
2011-03-30, 03:33:04,VALID,998.407,VALID,0,VALID,90.7238,VALID,0,VALID,24.2866,VALID,96,VALID,1.16797,
2011-03-30, 03:34:04,VALID,998.407,VALID,0,VALID,90.823,VALID,0,VALID,24.2263,VALID,97,VALID,1.0668,
2011-03-30, 03:35:04,VALID,998.419,VALID,0,VALID,90.9069,VALID,0,VALID,24.2281,VALID,96,VALID,1.01875,
2011-03-30, 03:36:04,VALID,998.414,VALID,0,VALID,90.9909,VALID,0,VALID,24.2281,VALID,96,VALID,0.91875,
2011-03-30, 03:37:04,VALID,998.414,VALID,0,VALID,91.0443,VALID,0,VALID,24.2086,VALID,96,VALID,0.847266,
2011-03-30, 03:38:04,VALID,998.409,VALID,0,VALID,91.0824,VALID,0,VALID,24.2086,VALID,96,VALID,0.462109,
2011-03-30, 03:39:04,VALID,998.417,VALID,0,VALID,91.1511,VALID,0,VALID,24.1891,VALID,96,VALID,0.371094,
2011-03-30, 03:40:04,VALID,998.42,VALID,0,VALID,91.1968,VALID,0,VALID,24.1891,VALID,96,VALID,0.225,
2011-03-30, 03:41:04,VALID,998.429,VALID,0,VALID,91.235,VALID,0,VALID,24.1696,VALID,96,VALID,0,
2011-03-30, 03:42:04,VALID,998.441,VALID,0,VALID,91.2731,VALID,0,VALID,24.15,VALID,96,VALID,0,
2011-03-30, 03:43:04,VALID,998.394,VALID,0,VALID,91.3113,VALID,0,VALID,24.15,VALID,96,VALID,0,
2011-03-30, 03:44:04,VALID,998.368,VALID,0,VALID,91.3266,VALID,0,VALID,24.1305,VALID,96,VALID,0.00195313,
2011-03-30, 03:45:04,VALID,998.384,VALID,0,VALID,91.3952,VALID,0,VALID,24.0915,VALID,96,VALID,0.298438,
2011-03-30, 03:46:04,VALID,998.352,VALID,0,VALID,91.4334,VALID,0,VALID,24.0915,VALID,96,VALID,0,
2011-03-30, 03:47:04,VALID,998.377,VALID,0,VALID,91.4334,VALID,0,VALID,24.072,VALID,96,VALID,0,
2011-03-30, 03:48:04,VALID,998.343,VALID,0,VALID,91.4563,VALID,0,VALID,24.0738,VALID,96,VALID,0,
2011-03-30, 03:49:04,VALID,998.33,VALID,0,VALID,91.502,VALID,0,VALID,24.0933,VALID,85,VALID,0,
2011-03-30, 03:50:04,VALID,998.332,VALID,0,VALID,91.5478,VALID,0,VALID,24.072,VALID,80,VALID,0,
2011-03-30, 03:51:04,VALID,998.325,VALID,0,VALID,91.586,VALID,0,VALID,24.0525,VALID,80,VALID,0,
2011-03-30, 03:52:04,VALID,998.317,VALID,0,VALID,91.586,VALID,0,VALID,24.0329,VALID,80,VALID,0,
2011-03-30, 03:53:04,VALID,998.346,VALID,0,VALID,91.6012,VALID,0,VALID,24.0134,VALID,80,VALID,0,